Location: Unspecified
(40.7945°N, 0.0000°E)
Time: 06:18:14
(UTC+00:00)

Vanguard 2 - All Passes

Search period start: 28 January 2021 00:00
Search period end: 07 February 2021 00:00
Orbit: 553 x 2937 km, 32.9° (Epoch: 27 January)

Date Brightness Start Highest point End Pass type
(mag) Time Alt. Az. Time Alt. Az. Time Alt. Az.
28 Jan - 13:38:54 10° S 13:40:55 12° SSE 13:42:45 10° SE daylight
28 Jan - 15:45:12 10° SW 15:48:39 25° S 15:51:59 10° ESE daylight
28 Jan - 17:52:53 10° WSW 17:56:16 26° S 18:00:18 10° SE visible
28 Jan - 20:01:32 10° SW 20:04:16 14° SSW 20:07:32 10° SSE visible
29 Jan - 13:55:18 10° SSW 13:58:36 17° SSE 14:01:24 10° ESE daylight
29 Jan - 16:02:45 10° WSW 16:06:17 27° S 16:09:45 10° ESE daylight
29 Jan - 18:10:45 10° WSW 18:13:56 22° S 18:17:40 10° SE visible
30 Jan - 14:12:20 10° SW 14:16:16 22° S 14:19:31 10° ESE daylight
30 Jan - 16:20:25 10° WSW 16:23:57 27° S 16:27:25 10° ESE daylight
30 Jan - 18:28:51 10° WSW 18:31:36 17° SSW 18:34:44 10° SSE visible
31 Jan - 12:22:21 10° SSW 12:25:52 15° SSE 12:28:46 10° SE daylight
31 Jan - 14:29:42 10° SW 14:33:57 26° S 14:37:24 10° ESE daylight
31 Jan - 16:38:11 10° WSW 16:41:35 25° S 16:44:59 10° SE daylight
31 Jan - 18:47:28 10° SW 18:49:15 12° SSW 18:51:12 10° S visible
01 Feb - 12:38:50 10° SSW 12:43:37 20° SSE 12:47:16 10° ESE daylight
01 Feb - 14:47:14 10° WSW 14:51:37 29° S 14:55:10 10° ESE daylight
01 Feb - 16:56:03 10° WSW 16:59:12 22° SSW 17:02:23 10° SE daylight
02 Feb - 10:49:29 10° S 10:52:44 12° SSE 10:55:31 10° SE daylight
02 Feb - 12:55:52 10° SW 13:01:21 25° S 13:05:21 10° ESE daylight
02 Feb - 15:04:54 10° WSW 15:09:16 30° S 15:12:50 10° ESE daylight
02 Feb - 17:14:07 10° WSW 17:16:48 17° SSW 17:19:31 10° SSE daylight
03 Feb - 11:04:58 10° SSW 11:10:32 18° SSE 11:14:46 10° ESE daylight
03 Feb - 13:13:11 10° SW 13:19:04 30° S 13:23:14 10° ESE daylight
03 Feb - 15:22:39 10° WSW 15:26:54 29° S 15:30:25 10° SE daylight
03 Feb - 17:32:37 10° SW 17:34:22 13° SSW 17:36:09 10° S daylight
04 Feb - 11:21:27 10° SSW 11:28:20 24° SSE 11:33:11 10° ESE daylight
04 Feb - 13:30:44 10° WSW 13:36:46 34° S 13:41:00 10° ESE daylight
04 Feb - 15:40:31 10° WSW 15:44:30 26° SSW 15:47:53 10° SE daylight
05 Feb - 09:31:21 10° S 09:36:56 15° SSE 09:41:25 10° SE daylight
05 Feb - 11:38:26 10° SW 11:46:06 29° SSE 11:51:15 10° ESE daylight
05 Feb - 13:48:24 10° WSW 13:54:27 36° S 13:58:41 10° ESE daylight
05 Feb - 15:58:30 10° WSW 16:02:04 21° SSW 16:05:09 10° SSE daylight
06 Feb - 09:46:55 10° SSW 09:54:45 21° SSE 10:00:29 10° ESE daylight
06 Feb - 11:55:43 10° SW 12:03:52 35° S 12:09:09 10° ESE daylight
06 Feb - 14:06:11 10° WSW 14:12:06 36° S 14:16:17 10° ESE daylight
06 Feb - 16:16:43 10° WSW 16:19:34 16° SSW 16:22:08 10° SSE daylight
